星链-30391 (STARLINK-30391 )

导读

STARLINK-30391是美国SpaceX公司星链计划中的一颗卫星,于2023年9月9日发射升空,归属发射国家美国。作为星链卫星互联网星座的组成部分,它主要服务于构建全球卫星互联网络,可为全球多地提供低延迟、高速率的宽带互联网服务,进一步推进了星链星座的部署组网进程。

基本信息
目录编号:
57817
目录名称:
STARLINK-30391
国际标识:
2023-138K
轨道中心:
EARTH
卫星名称:
星链-30391
卫星全名:
星链-30391 (STARLINK-30391 )
卫星状态:
在轨 (已飞行1098 天)
发射日期:
2023-09-09 UTC
国别 :
美国 (US)
星等 :
--
该卫星已列入 空间交会检测服务 Space Conjunction Data Service (SCDS) ,当前飞行风险评估等级: 高风险
轨道信息
数据来源 国际轨道数据
星历时间: 2026-09-11T10:49:24+0800
14小时前
查看轨道信息
半长轴: 6861.179km
偏心率: 0.0001504
轨道倾角: 42.999°
近地点辐角 264.253°
升交点赤经 267.279°
平近点角 95.815°
近地点: 482.01km
远地点: 484.074km
周期: 94.267分钟
每日圈数: 15.275827
详细信息
固有亮度:
5
最大亮度:
0.3
卫星平台:
Starlink v2.0 mini
覆盖范围:
全球
运营商:
太空探索技术公司
运营商所在国:
美国
制造商(研发单位):
太空探索技术公司
制造商所在国:
美国
使用方式:
暂无
卫星简介
星链(Starlink)计划是由太空探索技术公司(SpaceX)提出的一个巨型低轨卫星互联网星座项目,计划在2019年至2024年间在太空搭建由约1.2万颗卫星组成的“星链”网络,其中1584颗将部署在地球上空550千米处的近地轨道,并从2020年开始工作。该卫星仍在工作。
2D轨道图
3D轨道图
轨道高度分析图
轨道倾角分析图
轨道综合分析图
查看轨道综合分析图
与全量物体交会距离演化趋势
与全量物体交会风险概率演化趋势